NOAA 16 DEB, 41711

Orbit data source: Space-Track

NOAA 16 DEB, 41711 is space debris in SSO originally from a launch on Thu, 21 Sep 2000 UTC launched from the Air Force Western Test Range (AFWTR). Debris objects in space refer to the collection of defunct objects orbiting the Earth. Examples of debris include non-operational satellites, rocket bodies, and fragments generated from explosions, collisions, or faulty payload assembly.

Loading next visibility...
Identifier
41711, 2000-055PR
Orbit
SSO
Country
Flag of USUS
Related business
Manufacturer
Unknown
Mission
Spacecraft
Bus & Motor
Unknown
Mass
Unknown
Launch date (UTC)
2000-09-21 (25 years ago)
Launch vehicle
Unknown
Launch site
Air Force Western Test Range (AFWTR)
Object type
Payload
Rocket body
Debris
Shape & HBR
Unknown shape, 0.1 m
Radar Cross Section
Small (<0.1 m²)

Expand to show TLE details & history
Last TLE update: 22 hours ago

TLE from 22 hours ago
0 NOAA 16 DEB
1 41711U 00055PR  25299.56100404  .00011962  00000-0  34985-2 0  9991
2 41711  98.7875  52.8736 0013134 162.0487 198.1169 14.44073624494345
Epoch: 2025-10-26T13:27Z
TLE epoch observation values (Epoch: 2025-10-26T13:27:50.749Z)
Latitude
0.00001°
Longitude
175.73671°
Altitude
756.91 km
Speed
7.471 km/s
True Right ascension
03h 31m 29s
True Declination
0° 00' 00"
Sunlit
Object was in full shadow at epoch
Visualization orbit readout
Latitude
Unknown
Longitude
Unknown
Altitude
Unknown
Speed
Unknown
Apparent Right ascension
Unknown
Apparent Declination
Unknown
Sunlit
N/A
Visualization observer readout
Local Sidereal Time
07:02:58
Azimuth
Unknown
Elevation
Unknown
Doppler factor
Unknown
Orbital elements
Apogee altitude
751.553 km
Perigee altitude
732.849 km
Semi-major axis
7,120.338 km
Eccentricity
0.00131
Inclination
98.7875°
RAAN
52.8736°
Arg. of periapsis
162.0487°
True anomaly
198.07017°
Mean anomaly
198.1169°
Eccentric anomaly
198.09353°
Mean motion
3.61237 °/min
Orbital period
99.66 mins
BSTAR
0.0034985
Loading maneuver chart data...
Computing Atmospheric mass density...
Loading historical data...
Loading historical data...
Loading historical data...
Loading historical data...
Loading historical data...
Loading historical data...
Loading historical data...

Documentation

Showing up to 5 results
|